OSCAR 7 (AO-7) (7530 NORAD) Tracking and Keplerian Element Data

This shows tracking and keplerian element data for the satellite.

Feedback or suggestion? Click here.




ElementValue
Catalog7530
NameOSCAR 7 (AO-7)
Epoch Orbit1306
Epoch Day317.49559639
Epoch Year2018
RAAN282.6888
Inclination101.7102
Eccentricity0.0012458
Argument of Perigee47.0733
Mean Anonmoly65.1375
Mean Motion12.53635296
Decay Rate-3.1E-07
L11 07530U 74089B 18317.49559639 -.00000031 00000-0 87417-4 0 9999
L22 07530 101.7102 282.6888 0012458 47.0733 65.1375 12.53635296 13064

Live tracking and technical data element details for OSCAR 7 (AO-7) (NORAD 7530). OSCAR 7 (AO-7) can be tracked NOW for your location showing map with azimuth and elevation plus other details from your city location.

Track the satellite on the map from your city or location and see movement details for azimuth, elevation, latitude, longitude, range, height, and movement on the map or in text.







IsCatalogInMostPopularTable: catalog: 7530, numindb: 538
Update: records affected: 1



GetName: 7530 OSCAR 7 (AO-7)

Hit Count: updated at: Wed, 14 Nov 2018 15:11:40 GMT